Inquirer Daily News

Weather

Get conditions and forecasts for any City, State, ZIP code or Country:  
Trenton, NJ
on Sunday, February 17, 2013

Sunday
Previous Day Next Day
Daily Summary
 ActualAverageRecord
Temperature
Mean Temperature °F 34°F  
Max Temperature 32°F 43°F 67°F (1976)
Min Temperature 20°F 26°F -3°F (1896)
Degree Days
Heating Degree Days 39 31  
Month to date heating degree days 571 545  
Since 1 July heating degree days 3279 3491  
Cooling Degree Days 0 0  
Month to date cooling degree days 0 0  
Year to date cooling degree days 0 0  
Moisture
Dew Point 4°F   
Average Humidity 37    
Maximum Humidity 43    
Minimum Humidity 31    
Precipitation
Precipitation 0.00 in 0.08 in 1.10 in (1902)
Month to date precipitation 0.95 1.32  
Year to date precipitation 3.77 4.48  
Wind
Wind Speed 15 mph   
Max Wind Speed 22 mph   
Max Gust Speed 44 mph   
Visibility 10 miles   
Events     

Key: T is trace of precipitation, MM is missing value
Source: NWS Daily Summary
Time(EST)TemperatureDew PointHumidity Pressure Visibility Wind DirectionWind SpeedGust SpeedPrecipitationEvents Conditions
12:53 AM 28.9°F 9.0°F 43% 29.73 in 10.0 miles North 15.0 mph 23.0 mph N/A   Overcast
1:53 AM 28.0°F 9.0°F 45% 29.73 in 10.0 miles North 11.5 mph 18.4 mph N/A   Overcast
2:53 AM 28.0°F 9.0°F 45% 29.71 in 10.0 miles North 12.7 mph - N/A   Overcast
3:53 AM 28.0°F 9.0°F 45% 29.71 in 10.0 miles North 10.4 mph - N/A   Overcast
4:53 AM 27.0°F 5.0°F 39% 29.71 in 10.0 miles North 17.3 mph 24.2 mph N/A   Partly Cloudy
5:53 AM 27.0°F 3.9°F 37% 29.72 in 10.0 miles North 11.5 mph - N/A   Clear
6:53 AM 26.1°F 5.0°F 41% 29.72 in 10.0 miles North 10.4 mph - N/A   Clear
7:53 AM 25.0°F 5.0°F 43% 29.74 in 10.0 miles NNW 10.4 mph 21.9 mph N/A   Clear
8:53 AM 27.0°F 5.0°F 39% 29.74 in 10.0 miles NNW 12.7 mph 18.4 mph N/A   Clear
9:53 AM 28.0°F 5.0°F 38% 29.75 in 10.0 miles NNW 12.7 mph 23.0 mph N/A   Clear
10:53 AM 30.0°F 5.0°F 35% 29.76 in 10.0 miles North 13.8 mph 27.6 mph N/A   Clear
11:53 AM 30.9°F 5.0°F 33% 29.76 in 10.0 miles NNW 16.1 mph 29.9 mph N/A   Scattered Clouds
12:53 PM 30.0°F 3.9°F 33% 29.76 in 10.0 miles NNW 21.9 mph 32.2 mph N/A   Mostly Cloudy
1:53 PM 30.9°F 5.0°F 33% 29.77 in 10.0 miles NW 21.9 mph 31.1 mph N/A   Overcast
2:53 PM 28.9°F 3.9°F 35% 29.78 in 10.0 miles North 16.1 mph 28.8 mph N/A   Overcast
3:53 PM 28.9°F 3.9°F 35% 29.80 in 10.0 miles NNW 17.3 mph 31.1 mph N/A   Scattered Clouds
4:53 PM 28.0°F 7.0°F 41% 29.82 in 10.0 miles NNW 15.0 mph 24.2 mph N/A   Mostly Cloudy
5:53 PM 27.0°F 1.9°F 34% 29.86 in 10.0 miles NNW 17.3 mph 33.4 mph N/A   Mostly Cloudy
6:53 PM 26.1°F 1.9°F 35% 29.89 in 10.0 miles NNW 19.6 mph 43.7 mph N/A   Mostly Cloudy
7:53 PM 25.0°F 1.0°F 36% 29.94 in 10.0 miles NW 12.7 mph 25.3 mph N/A   Partly Cloudy
8:53 PM 23.0°F -0.9°F 35% 29.96 in 10.0 miles NNW 19.6 mph 31.1 mph N/A   Clear
9:53 PM 21.0°F -0.9°F 38% 30.00 in 10.0 miles NNW 16.1 mph 32.2 mph N/A   Clear
10:53 PM 19.9°F -0.0°F 42% 30.04 in 10.0 miles NNW 16.1 mph 28.8 mph N/A   Clear
Astronomy
Sunrise:06:49 AM (EST) Moon Rise:10:40 AM (EST)2/17
Sunset:05:37 PM (EST) Moon Set:12:31 AM (EST)2/17
Moon Phase
Feb. 17 Feb. 17 Feb. 25 Mar. 04 Mar. 11

Copyright © 2014 The Weather Underground, Inc.